Location: La Pernelle
(49.6188°N, 1.2999°W)
Time: 16:18:43
(UTC+00:00)

Cosmos 1626 - Pass Details

Date: 30 October 2021
Orbit: 487 x 492 km, 82.5° (Epoch: 30 November)

Event Time Altitude Azimuth Distance (km) Brightness Sun altitude
Exits shadow 04:40:30 12° 353° (N) 1,580 4.6 -21.5°
Drops below altitude 10° 04:40:49 10° 355° (N) 1,700 4.8 -21.5°
Sets 04:43:03 0° 4° (N) 2,587 5.8 -21.1°
